Regional Weather Roundup
Issued by NWS Charleston, WV

Home | Current Version | Previous Version | Text Only | Print | Product List | Glossary On
Versions: 1 2 3 4 5 6 7 8 9 10 11 12 13 14 15 16 17 18 19 20 21 22 23 24 25 26 27 28
000
ASUS41 KRLX 241210
RWRRLX
West Virginia Regional Weather Roundup
National Weather Service Charleston WV
800 AM EDT THU APR 24 2014

Note: "fair" indicates few or no clouds below 12,000 feet with no
significant weather and/or obstructions to visibility.

WVZ003-241300-
Northern Panhandle of West Virginia

CITY           SKY/WX    TMP DP  RH WIND       PRES   REMARKS
WHEELING       PTSUNNY   33  27  78 E3        30.16R
$$

WVZ009-241300-
Northwest West Virginia

CITY           SKY/WX    TMP DP  RH WIND       PRES   REMARKS
PARKERSBURG    CLOUDY    41  32  70 CALM      30.19R
$$

WVZ006-241300-
Western West Virginia

CITY           SKY/WX    TMP DP  RH WIND       PRES   REMARKS
HUNTINGTON     CLOUDY    44  33  65 NE5       30.12R
$$

WVZ015-241300-
West Central West Virginia

CITY           SKY/WX    TMP DP  RH WIND       PRES   REMARKS
CHARLESTON     PTSUNNY   43  37  79 CALM      30.13R
$$

WVZ031-241300-
North Central West Virginia

CITY           SKY/WX    TMP DP  RH WIND       PRES   REMARKS
CLARKSBURG     CLOUDY    35  30  82 CALM      30.15R
MORGANTOWN     MOSUNNY   35  27  72 CALM      30.17R
$$

WVZ035-042-045-241300-
South Central West Virginia

CITY           SKY/WX    TMP DP  RH WIND       PRES   REMARKS
BECKLEY        CLOUDY    42  30  62 SE3       30.09R
BLUEFIELD      MOSUNNY   42  29  59 E5        30.08R
LEWISBURG      CLOUDY    36  31  79 CALM      30.10S
$$

WVZ047-241300-
Northern Mountains of West Virginia

CITY           SKY/WX    TMP DP  RH WIND       PRES   REMARKS
ELKINS         PTSUNNY   32  29  88 CALM      30.13R
$$

WVZ052-241300-
Eastern Panhandle of West Virginia

CITY           SKY/WX    TMP DP  RH WIND       PRES   REMARKS
MARTINSBURG    SUNNY     44  18  35 NW10      30.14R
PETERSBURG     MOSUNNY   40  36  84 CALM      30.16R
$$



USA.gov is the U.S. government's official web portal to all federal, state and local government web resources and services.